This demonstration page uses our WeatherBlox Daily Observations layout. Learn more.

Left ArrowRight Arrow

Hourly Observations for May 20, 2015

Temp ( °F °C ) Dew Point ( °F °C ) Humidity (%) Winds ( mph kmh ) Pressure ( in mb ) Visibility ( mi km ) Precip ( " mm )
12:51 am 00:51 Clear 61 16.1 23 -5 23 23 WNW 7 11 29.84 1011 10 16 0.00 0.00
1:51 am 01:51 Clear 56 13.3 22 -5.6 27 27 E 6 9 29.85 1011 10 16 0.00 0.00
2:51 am 02:51 Clear 54 12.2 22 -5.6 29 29 SE 3 6 29.85 1011 10 16 0.00 0.00
3:51 am 03:51 Clear 52 11.1 22 -5.6 31 31 Calm 29.86 1011 10 16 0.00 0.00
4:51 am 04:51 Clear 50 10 22 -5.6 33 33 Calm 29.87 1011 10 16 0.00 0.00
5:51 am 05:51 Sunny 49 9.4 21 -6.1 33 33 Calm 29.88 1012 10 16 0.00 0.00
6:51 am 06:51 Sunny 57 13.9 23 -5 27 27 Calm 29.89 1012 10 16 0.00 0.00
7:51 am 07:51 Sunny 67 19.4 25 -3.9 20 20 ESE 6 9 29.88 1012 10 16 0.00 0.00
8:51 am 08:51 Sunny 71 21.7 24 -4.4 17 17 SE 8 13 29.89 1012 10 16 0.00 0.00
9:51 am 09:51 Sunny 76 24.4 22 -5.6 13 13 SE 12 19 29.88 1012 10 16 0.00 0.00
10:51 am 10:51 Sunny 81 27.2 22 -5.6 11 11 SSE 13 20 29.86 1011 10 16 0.00 0.00
11:51 am 11:51 Sunny 83 28.3 21 -6.1 10 10 VRB 7 11 29.85 1011 10 16 0.00 0.00
12:51 pm 12:51 Sunny 84 28.9 20 -6.7 9 9 VRB 6 9 29.81 1010 10 16 0.00 0.00
1:51 pm 13:51 Sunny 86 30 16 -8.9 7 7 VRB 5 7 29.78 1009 10 16 0.00 0.00
2:51 pm 14:51 Sunny 88 31.1 14 -10 6 6 S 6 9 29.76 1008 10 16 0.00 0.00
3:51 pm 15:51 Sunny 90 32.2 16 -8.9 6 6 SSW 17 28 29.73 1007 10 16 0.00 0.00
4:51 pm 16:51 Sunny 88 31.1 16 -8.9 7 7 S 8 13 29.72 1007 10 16 0.00 0.00
5:51 pm 17:51 Sunny 88 31.1 14 -10 6 6 SSW 14 22 29.71 1006 10 16 0.00 0.00
6:51 pm 18:51 Sunny 83 28.3 17 -8.3 8 8 WSW 6 9 29.71 1006 10 16 0.00 0.00
7:51 pm 19:51 Clear 79 26.1 19 -7.2 10 10 NW 13 20 29.72 1007 10 16 0.00 0.00
8:51 pm 20:51 Clear 78 25.6 20 -6.7 11 11 NNW 15 24 29.75 1008 10 16 0.00 0.00
9:51 pm 21:51 Clear 75 23.9 22 -5.6 14 14 NNW 10 17 29.77 1008 10 16 0.00 0.00
10:51 pm 22:51 Clear 71 21.7 21 -6.1 15 15 NW 6 9 29.78 1009 10 16 0.00 0.00
11:51 pm 23:51 Clear 71 21.7 23 -5 16 16 WNW 8 13 29.79 1009 10 16 0.00 0.00

Powered by AerisWeather